This is the latest recevied weather packets stored in our database for station/object WE0DX-1. If no packets are shown the sender has not sent any weather packets the latest 10 day(s).
| Time | Temp. | Humidity | Pressure | Rain* | Wind** | Luminosity | Snow |
|---|---|---|---|---|---|---|---|
| 1777304137 | 16.67° C | 99% | 1000.6 hPa | 0 mm | - | 688 W/m² | - |
| 1777303833 | 17.22° C | 99% | 1000.6 hPa | 0 mm | - | 475 W/m² | - |
| 1777303530 | 16.67° C | 99% | 1000.4 hPa | 0 mm | - | 550 W/m² | - |
| 1777303228 | 16.67° C | 99% | 1000.3 hPa | 0 mm | - | 626 W/m² | - |
| 1777302926 | 16.67° C | 99% | 1000.1 hPa | 0 mm | - | 607 W/m² | - |
| 1777302622 | 16.67° C | 99% | 1000.1 hPa | 0 mm | - | 579 W/m² | - |
| 1777302321 | 16.11° C | 99% | 1000.3 hPa | 0 mm | - | 550 W/m² | - |
| 1777302018 | 15.56° C | 99% | 1000.1 hPa | 0 mm | - | 603 W/m² | - |
| 1777301716 | 15.56° C | 99% | 1000.2 hPa | 0 mm | - | 252 W/m² | - |
| 1777301412 | 15.56° C | 99% | 1000.2 hPa | 0 mm | - | 257 W/m² | - |
| 1777301109 | 15.56° C | 99% | 1000.4 hPa | 0 mm | - | 214 W/m² | - |
| 1777300806 | 15.56° C | 99% | 1000.3 hPa | 0 mm | - | 254 W/m² | - |
| 1777300504 | 15.56° C | 99% | 1000.3 hPa | 0 mm | - | 271 W/m² | - |
| 1777300201 | 15.56° C | 99% | 1000.3 hPa | 0 mm | - | 403 W/m² | - |
| 1777299898 | 15.56° C | 99% | 1000.5 hPa | 0 mm | - | 296 W/m² | - |
| 1777299595 | 15.56° C | 99% | 1000.5 hPa | 0 mm | - | 273 W/m² | - |
| 1777299293 | 15° C | 99% | 1000.6 hPa | 0 mm | - | 173 W/m² | - |
| 1777298989 | 15° C | 99% | 1000.7 hPa | 0 mm | - | 177 W/m² | - |
| 1777298688 | 15° C | 99% | 1000.5 hPa | 0 mm | - | 195 W/m² | - |
| 1777298383 | 15° C | 99% | 1000.8 hPa | 0 mm | - | 162 W/m² | - |
| 1777298080 | 15° C | 99% | 1000.7 hPa | 0 mm | - | 70 W/m² | - |
| 1777297779 | 15° C | 99% | 1000.7 hPa | 0 mm | - | 69 W/m² | - |
| 1777297478 | 15° C | 99% | 1000.6 hPa | 0 mm | - | 64 W/m² | - |
| 1777297174 | 15° C | 99% | 1000.3 hPa | 0 mm | - | 74 W/m² | - |
| 1777296872 | 15° C | 99% | 1000.5 hPa | 0 mm | - | 77 W/m² | - |
* Rain latest hour (hover to see other rain measurements)
** Current wind speed in m/s (hover to see current wind gust speed)